Regional Weather Roundup
Issued by NWS Memphis, TN

Home | Current Version | Previous Version | Text Only | Print | Product List | Glossary On
Versions: 1 2 3 4 5 6 7 8 9 10 11 12 13 14 15 16 17 18 19 20 21 22 23 24 25 26 27 28 29 30 31 32 33 34 35 36 37 38 39 40 41 42 43 44 45 46 47 48 49 50
000
ASUS44 KMEG 282310
RWRMEG
MEMPHIS CWA HOURLY WEATHER ROUNDUP
NATIONAL WEATHER SERVICE MEMPHIS TN
500 PM CST SUN DEC 28 2014

...WEST TENNESSEE...

CITY           SKY/WX    TMP DP  RH WIND       PRES   REMARKS
MEMPHIS INTL   CLOUDY    40  35  83 N8        30.16S WCI  34
NWS MEMPHIS      N/A     39 N/A N/A MISG        N/A
JACKSON        FOG       37  36  96 N9        30.18R VSB<1/4 WCI  30
LEXINGTON      CLOUDY    37  37 100 N7        30.16R WCI  32
SAVANNAH       CLOUDY    39  39 100 N5        30.15S
DYERSBURG      CLOUDY    37  23  56 NE7       30.21R WCI  32
UNION CITY     CLOUDY    34  34 100 NE5       30.18S WCI  30
PARIS          CLOUDY    34  30  86 NE6       30.18S WCI  29
HUNTINGDON     CLOUDY    35  33  92 NE6       30.18S WCI  30


...EASTERN ARKANSAS...

CITY           SKY/WX    TMP DP  RH WIND       PRES   REMARKS
JONESBORO      CLOUDY    37  32  82 NE6       30.21R WCI  32
WEST MEMPHIS   CLOUDY    38  36  92 N12       30.18R WCI  30
BATESVILLE     CLOUDY    36  27  69 CALM      30.20S
NEWPORT        CLOUDY    37  33  85 N8        30.21F WCI  31
WALNUT RIDGE   CLOUDY    37  28  70 NE7       30.20S WCI  32
BLYTHEVILLE    CLOUDY    37  33  85 N10       30.21R WCI  30
SEARCY         CLOUDY    38  32  79 N5        30.22R WCI  34
STUTTGART      CLOUDY    39  34  81 N7        30.20R WCI  34
PINE BLUFF     CLOUDY    39  34  82 NE8       30.18S WCI  33
MONTICELLO     LGT RAIN  41  38  89 N6        30.17R


...NORTH MISSISSIPPI...

CITY           SKY/WX    TMP DP  RH WIND       PRES   REMARKS
TUPELO         LGT RAIN  44  41  89 NE7       30.13F
OXFORD         CLOUDY    39  37  93 NE5       30.16S
TUNICA         CLOUDY    39  37  93 N8        30.18S WCI  34
CLARKSDALE     CLOUDY    41  41 100 N12       30.19R
GRENADA        LGT RAIN  43  41  93 N6        30.15S
GREENWOOD      LGT RAIN  44  42  93 N8        30.15R
COLUMBUS       LGT RAIN  46  45  95 N6        30.11F
STARKVILLE     LGT RAIN  45  45 100 CALM      30.12S
GOLDEN TRIANGL CLOUDY    46  43  87 N6        30.11S


...SOUTHEAST MISSOURI...

CITY           SKY/WX    TMP DP  RH WIND       PRES   REMARKS
WEST PLAINS    PTCLDY    33  25  72 E3        30.16R
POPLAR BLUFF   CLOUDY    35  27  72 E6        30.21R WCI  30
CAPE GIRARDEAU CLOUDY    35  28  75 NE8       30.22R WCI  29


...NORTHWEST ALABAMA...

CITY           SKY/WX    TMP DP  RH WIND       PRES   REMARKS
MUSCLE SHOALS  LGT RAIN  45  41  86 N5        30.15S


...MIDDLE TENNESSEE...

CITY           SKY/WX    TMP DP  RH WIND       PRES   REMARKS
NASHVILLE      LGT RAIN  39  38  96 N6        30.18R WCI  35
CLARKSVILLE    CLOUDY    36  33  89 N9        30.20R WCI  29
COLUMBIA       CLOUDY   N/A N/A N/A N5        30.13S


...WESTERN KENTUCKY...

CITY           SKY/WX    TMP DP  RH WIND       PRES   REMARKS
PADUCAH        CLOUDY    36  29  75 NE6       30.20R WCI  31
FORT CAMPBELL  CLOUDY    36  32  86 N8        30.19S WCI  29


...CENTRAL ARKANSAS...

CITY           SKY/WX    TMP DP  RH WIND       PRES   REMARKS
LITTLE ROCK    CLOUDY    40  31  70 NE6       30.19F


SKY/WX REPORTED AS FAIR MEANS FEW OR NO CLOUDS BELOW
12 THOUSAND FEET.



USA.gov is the U.S. government's official web portal to all federal, state and local government web resources and services.